Theta_e
324 325 325 325 326 327 328 329 328 325 325 326 326 325 326 325 324 314 307 314 314 324 321 311 308 309 310 308 310 310 299 296 299 299 299 304 301 303 302 302 302 306 308 318 329
324 324 324 325 325 326 328 329 327 325 325 325 326 325 326 324 314 309 320 324 327 326 309 306 304 308 303 305 305 302 298 300 304 300 300 302 302 302 298 300 300 305 312 325 327
323 323 324 325 325 326 327 327 327 325 325 325 327 326 324 320 306 304 323 327 328 326 310 308 308 306 301 304 302 302 299 302 301 302 304 303 300 303 299 298 301 303 312 322 323
322 322 323 324 324 325 326 327 327 327 327 327 326 324 323 313 294 309 325 326 330 320 310 305 304 301 301 299 303 298 302 302 303 302 302 302 302 300 300 299 304 305 315 320 321
321 321 322 323 323 324 325 326 326 326 326 326 325 322 314 302 301 317 325 325 322 312 306 304 301 301 298 300 300 299 299 301 302 301 301 303 301 298 300 302 303 306 315 317 319
320 320 320 321 322 323 324 325 325 324 324 324 324 321 308 296 310 318 319 319 313 308 305 305 302 303 301 300 298 300 299 298 299 300 299 299 297 298 301 302 302 304 304 312 316
319 319 320 320 321 322 323 324 324 323 323 324 323 314 304 302 311 315 315 312 310 307 305 307 306 303 302 299 300 300 295 296 296 297 296 298 295 296 297 299 300 301 301 305 309
319 319 319 320 321 322 323 323 322 322 322 323 323 311 300 311 312 313 313 310 310 309 308 308 306 305 302 301 297 296 295 290 295 297 298 297 293 299 300 298 297 298 297 300 304
318 318 318 319 320 320 321 321 320 321 322 323 313 307 298 312 306 310 311 307 307 307 308 307 307 301 300 294 291 293 288 290 291 298 296 294 292 295 297 297 296 296 297 298 301
317 317 318 319 319 320 320 320 320 319 318 315 309 301 303 300 307 308 309 309 305 305 302 302 300 296 295 292 285 287 288 291 290 293 293 292 293 294 296 296 296 296 297 297 299
317 317 318 318 319 320 317 312 305 302 306 299 299 299 300 306 308 305 307 306 305 302 294 299 293 290 292 294 294 292 290 288 291 294 292 291 292 295 297 296 296 296 297 297 298
317 317 318 319 319 319 314 302 303 305 297 303 302 302 306 306 299 302 306 299 299 293 296 294 290 295 296 296 293 291 290 288 291 294 292 291 291 294 296 296 296 297 297 298 300
316 316 317 318 318 315 309 305 310 307 295 298 301 300 302 304 299 299 302 300 296 293 293 291 293 296 294 291 291 290 289 288 289 291 290 287 287 291 295 296 297 298 298 298 298
316 316 317 317 311 311 306 310 311 308 289 291 295 299 303 303 297 303 304 300 295 292 294 292 293 293 292 290 291 286 290 292 290 287 283 286 279 287 291 293 294 296 296 295 295
316 316 317 316 308 305 309 310 312 304 278 293 294 304 303 297 297 298 302 298 293 293 293 290 290 291 291 292 293 289 292 290 291 287 285 284 280 284 288 289 292 292 295 295 298
315 316 316 312 311 310 311 312 308 287 278 289 294 294 294 295 296 298 297 299 298 293 293 291 293 293 292 292 293 294 291 290 287 286 278 283 282 283 286 289 289 293 296 299 297
315 315 313 313 305 313 312 306 286 280 292 288 288 293 292 291 292 294 292 290 288 285 285 289 289 292 293 289 292 291 287 279 278 277 277 282 281 286 289 289 291 294 297 297 298
315 314 312 311 312 314 308 293 278 286 288 293 291 292 288 291 291 292 290 288 291 289 287 284 282 289 292 290 288 288 287 281 275 276 278 281 278 284 292 292 292 297 297 298 298
314 311 308 309 312 313 298 283 282 288 292 291 290 287 287 290 290 290 289 289 291 291 286 284 284 291 291 291 291 288 284 289 281 275 278 281 284 290 292 292 291 293 296 296 297
308 305 304 310 313 308 292 286 290 295 295 293 285 289 285 287 287 288 288 292 291 293 291 288 282 289 289 291 290 288 290 283 284 274 273 278 280 283 288 289 292 292 294 296 296
301 295 300 311 310 299 286 287 292 296 297 292 289 287 288 287 287 287 288 291 293 291 291 289 288 284 288 287 286 286 285 287 286 284 277 275 280 285 288 291 290 292 295 295 296
296 286 301 309 292 290 288 292 295 295 299 296 294 292 289 289 287 286 287 289 293 292 288 290 288 282 284 288 289 288 287 287 282 280 281 281 280 289 290 292 293 294 296 296 297
287 288 299 302 285 286 291 292 294 294 295 295 293 294 293 289 285 289 289 293 292 291 290 291 286 279 282 286 288 286 287 288 287 284 279 277 279 291 290 292 295 295 295 296 296
290 284 286 291 293 290 288 289 289 296 296 297 295 295 291 289 292 288 290 294 294 293 295 294 288 285 281 284 287 283 286 287 287 281 282 282 284 288 290 292 295 295 295 295 295
291 286 287 283 286 290 291 290 288 289 295 296 293 294 292 287 288 288 291 292 294 295 293 291 281 284 286 286 286 284 285 287 285 287 282 286 285 288 291 291 295 295 294 295 295
288 287 290 287 290 289 290 288 288 290 292 291 292 295 295 289 290 288 291 291 290 292 290 291 279 283 280 287 286 283 286 287 287 287 287 287 285 291 292 292 294 295 295 295 295
292 293 292 288 286 286 286 287 289 292 291 294 294 293 291 292 295 296 296 296 295 291 289 287 283 279 276 283 282 278 284 286 287 289 288 284 289 291 290 293 293 295 296 295 295
Wind_Speed
22 20 20 18 17 17 17 20 18 17 14 15 14 11 8 8 7 3 8 6 6 2 10 6 5 6 5 3 2 2 3 8 9 5 6 10 6 3 2 7 2 3 5 9 13
22 20 19 18 17 17 17 20 19 18 14 13 11 10 8 7 2 6 4 10 9 10 4 5 7 1 4 4 3 2 2 7 6 0 9 9 9 7 3 6 4 6 3 11 11
22 20 20 19 19 18 17 19 19 17 16 13 10 10 9 6 2 7 15 14 11 11 9 6 7 5 5 3 4 5 4 2 5 6 10 9 3 8 5 6 8 12 10 11 9
22 20 20 19 20 18 16 16 17 16 14 11 11 12 10 2 6 2 24 20 12 10 6 7 2 4 3 4 6 3 3 7 3 3 3 10 5 3 5 4 6 7 15 10 9
22 20 19 18 20 18 16 15 15 14 12 12 14 14 6 3 8 3 20 19 6 8 7 7 6 7 8 6 2 3 3 5 7 2 3 7 5 2 6 8 7 9 13 11 9
22 21 19 19 19 17 15 15 15 13 13 13 14 11 3 7 4 8 15 13 12 7 5 7 6 8 3 6 8 2 6 6 4 4 4 2 4 2 7 10 10 7 6 10 10
22 22 19 17 17 17 16 16 15 14 12 13 14 10 7 13 2 7 12 4 7 8 4 3 10 6 6 2 3 4 5 4 3 3 2 3 3 7 3 6 7 9 8 8 9
23 24 21 18 17 18 17 16 15 15 12 12 12 8 7 9 4 6 7 6 7 6 5 6 5 2 1 4 2 7 5 4 4 5 1 2 4 11 9 9 7 8 9 8 8
24 23 21 19 18 19 18 17 14 14 13 12 7 7 9 3 6 8 8 7 7 7 4 1 4 3 1 4 3 6 5 6 2 3 5 5 3 4 4 4 5 7 8 8 8
25 24 22 20 19 21 20 17 14 13 9 11 7 8 7 5 5 8 6 6 6 9 5 6 5 5 4 8 13 8 7 8 6 7 3 4 8 3 6 5 7 7 8 7 8
27 26 24 22 22 24 21 13 10 7 16 9 11 8 6 4 5 6 5 7 6 7 7 9 8 13 13 9 6 8 9 6 6 2 3 7 7 9 9 7 8 8 8 8 8
28 27 25 25 24 25 16 8 13 10 10 12 0 14 4 2 5 8 6 8 7 9 8 4 10 9 9 10 7 4 11 6 5 5 2 4 10 8 8 7 8 10 8 8 7
28 27 26 25 23 17 14 12 16 18 7 8 4 14 4 4 4 12 9 4 7 9 10 6 5 5 7 2 5 3 4 5 4 5 2 3 7 8 9 10 9 9 8 5 6
28 27 27 26 15 14 16 11 5 3 6 10 7 6 6 5 2 1 4 4 7 14 8 5 1 7 5 6 5 3 2 9 10 7 4 3 6 4 7 7 7 7 7 6 4
29 28 29 23 12 16 7 3 3 0 6 16 12 3 8 6 11 3 2 2 7 8 7 4 7 6 5 6 5 2 6 6 3 2 2 3 1 6 3 5 8 9 8 5 7
30 29 29 11 9 14 6 6 3 3 6 7 8 10 10 5 2 5 5 2 2 5 7 4 3 2 3 5 2 9 8 6 2 4 1 7 7 6 5 6 1 6 7 8 6
30 32 22 6 9 9 11 5 4 6 8 8 9 12 16 7 5 6 12 7 7 8 5 5 3 2 2 8 4 4 7 2 1 1 6 7 3 10 3 1 4 8 8 8 7
31 30 13 4 3 10 5 6 6 11 10 4 11 15 12 11 3 4 10 10 8 6 10 8 4 8 6 4 8 6 6 6 7 5 4 4 7 9 2 5 7 8 9 8 7
32 10 8 4 5 4 10 13 10 8 10 8 13 19 8 9 6 7 11 15 12 8 6 7 3 3 5 3 4 5 5 3 8 3 5 6 7 6 4 4 4 7 7 8 7
11 9 6 7 6 4 10 11 3 4 11 13 8 13 14 15 8 10 14 11 7 8 3 4 7 3 2 2 2 2 4 4 2 5 3 6 4 6 7 9 8 8 8 8 7
7 7 0 8 4 6 14 8 5 3 4 8 6 8 11 14 12 9 14 4 8 7 4 4 6 1 2 6 6 2 3 3 4 5 6 2 7 3 1 9 12 9 8 9 8
4 6 2 7 9 5 10 9 5 3 2 2 2 3 14 15 10 8 10 3 4 11 10 0 6 5 4 2 1 2 4 5 5 5 2 5 7 1 2 3 9 9 9 8 8
5 4 3 8 13 12 5 8 4 5 5 3 2 1 2 11 7 6 6 2 3 9 18 8 1 5 3 3 2 5 4 5 2 4 5 7 8 2 1 3 7 10 8 7 8
4 5 3 3 4 14 11 15 6 2 1 2 3 3 4 8 3 10 5 2 2 2 1 7 5 10 13 7 8 7 8 7 5 3 8 10 6 4 5 6 6 8 9 8 7
3 3 1 7 8 14 14 13 10 8 1 4 1 3 4 5 4 4 7 5 3 1 1 8 7 4 4 3 5 2 11 12 11 20 8 21 12 7 8 10 10 8 8 9 9
3 3 2 5 9 15 17 10 16 5 8 7 4 5 3 5 3 7 9 6 6 3 4 1 1 3 3 4 6 2 7 15 19 19 14 16 15 6 6 6 9 11 11 11 10
1 0 1 4 5 6 7 11 14 12 3 4 5 5 9 8 10 8 6 7 7 8 6 6 7 4 3 1 5 6 17 11 11 12 15 18 25 4 5 9 10 11 13 14 12
Wind_Direction
182 187 191 191 191 193 189 172 165 173 173 176 177 171 162 130 116 177 203 190 186 255 344 313 277 247 281 244 298 287 292 225 253 167 134 139 133 336 34 111 87 66 58 111 125
180 180 186 187 189 193 188 172 167 175 179 176 165 157 139 130 84 239 227 218 197 137 345 298 258 234 242 213 214 209 258 229 222 316 132 161 145 148 129 123 131 96 63 113 129
179 186 178 183 183 188 181 174 171 171 179 170 154 134 113 96 34 240 201 223 202 185 176 210 286 204 259 220 223 210 247 276 43 55 118 157 187 148 194 177 182 171 160 141 154
176 186 177 188 178 181 169 162 165 166 174 159 146 121 123 150 200 207 169 202 180 193 188 159 222 215 258 224 209 274 266 344 60 22 115 150 112 129 229 108 32 98 153 150 170
173 176 176 181 177 175 162 160 160 163 166 153 134 132 138 164 257 155 164 188 174 172 176 191 178 204 202 204 150 221 98 20 74 96 66 94 137 210 195 129 85 87 145 161 180
174 169 175 174 170 163 166 160 152 158 156 152 140 148 197 232 219 159 150 157 186 149 202 204 194 213 277 205 201 215 125 111 119 103 49 121 109 36 214 156 134 135 169 169 178
169 163 165 161 163 160 161 151 149 146 157 149 152 170 201 221 139 161 138 188 172 172 155 205 254 209 180 238 136 153 114 129 154 167 104 311 131 238 133 111 166 175 195 194 191
164 159 160 157 160 153 147 141 144 139 149 150 155 195 235 240 139 157 179 178 156 175 228 226 255 198 119 124 119 177 128 162 152 162 154 157 244 218 166 144 197 193 191 204 193
159 154 151 152 153 143 136 132 139 134 141 141 147 217 230 140 186 175 184 172 163 178 178 228 180 172 171 190 143 225 171 189 200 246 133 193 221 120 76 133 239 243 219 190 195
156 153 148 146 148 140 126 127 122 121 158 175 232 191 211 204 157 153 182 164 161 145 132 191 182 176 205 201 193 167 225 193 159 198 199 185 258 162 167 179 229 246 228 217 188
152 150 148 146 148 139 133 125 133 173 184 178 176 227 149 80 109 169 172 162 137 179 171 199 206 200 199 219 234 173 181 164 118 56 155 228 253 242 202 188 206 252 243 200 210
153 150 148 149 156 146 161 177 178 134 178 239 300 202 80 242 126 156 163 170 167 176 175 153 215 199 202 209 233 267 185 160 67 109 132 221 254 255 251 236 196 206 241 225 193
151 150 148 150 151 153 185 212 208 151 148 184 226 191 167 197 155 171 178 192 187 183 195 165 170 185 136 135 157 253 186 144 134 138 273 325 277 231 237 213 218 212 211 219 183
151 151 150 145 149 169 210 201 34 75 164 158 191 204 154 182 166 8 211 183 189 195 145 244 134 172 156 169 169 150 30 106 122 148 196 172 269 244 205 200 204 214 206 220 152
153 154 149 155 132 180 179 178 110 336 187 163 153 124 154 165 132 222 37 228 166 156 150 176 149 155 179 177 174 151 104 112 139 116 65 202 70 253 51 207 216 210 210 160 103
152 148 147 185 138 178 170 120 153 201 228 157 136 162 152 142 94 120 158 88 31 84 75 70 331 53 86 32 97 137 99 77 99 96 345 212 163 275 193 210 141 132 136 123 124
150 148 152 151 154 141 137 138 137 203 144 169 175 166 156 149 120 198 176 174 149 133 158 131 113 94 169 83 8 173 153 117 87 69 214 335 184 240 219 97 160 156 141 131 136
150 147 149 84 123 141 148 163 181 192 189 176 153 154 169 139 98 188 158 188 250 208 146 155 196 171 180 162 172 210 187 152 179 182 211 355 233 251 142 88 102 107 127 135 137
143 146 136 138 138 159 166 189 196 172 154 139 130 157 169 173 131 149 198 194 201 188 153 153 110 32 29 18 126 202 208 109 104 0 75 209 267 278 129 150 153 131 137 159 144
141 134 126 141 125 154 191 198 180 3 124 149 157 180 167 175 151 180 182 197 195 178 349 129 106 357 341 325 61 157 166 83 335 129 227 253 243 236 210 206 186 176 180 151 135
100 115 240 138 123 178 198 190 121 355 107 176 161 170 180 174 178 199 181 176 175 141 116 116 103 2 137 209 162 161 198 206 151 151 169 195 259 237 179 192 172 180 182 149 155
105 108 195 181 162 195 197 182 69 139 42 10 267 150 182 161 181 194 184 147 144 144 159 16 111 138 174 158 96 356 222 170 142 231 211 143 268 355 48 65 145 162 149 148 141
80 90 356 181 181 182 155 204 110 144 169 181 90 18 350 154 169 169 127 23 24 154 167 177 194 105 43 21 3 217 196 269 4 74 200 138 260 271 45 90 144 139 134 133 135
119 120 8 42 1 170 178 201 140 12 196 78 101 87 120 155 35 176 114 99 46 91 33 144 152 181 211 228 141 180 196 202 189 134 213 220 207 199 202 184 150 148 145 146 156
10 76 108 154 184 175 169 173 155 174 225 159 82 239 149 133 125 164 99 115 86 104 154 165 181 162 76 119 65 153 179 178 201 225 177 237 234 203 199 192 192 154 155 164 178
105 137 124 87 132 161 172 183 175 129 166 172 169 97 16 124 159 171 124 152 174 188 159 62 128 106 41 60 105 105 212 201 210 226 237 253 272 147 219 166 153 179 170 187 187
46 79 67 125 134 135 156 167 175 169 19 20 113 92 78 67 65 37 74 95 134 142 151 136 131 106 176 60 86 301 217 196 208 216 211 232 242 185 182 177 179 181 188 195 182